Station: Robe Airport  

  Atmospheric Gas Attenuation - ITU Rec 676-11   ----------------- dB/100km -----------------
Date Time Temp RH % AH g/m3 Dew Point Wind Direction Speed kph Gust kph Barometer mB Rainfall Since 9am 24GHz 47GHz 76GHz 122GHz 134GHz 241GHz
09/05 00:50 12.4 93 10.16 11.3 6 6 1028.8 0.6 23.0 29.6 47.9 125.7 123.3 425.3
09/05 00:40 12.5 93 10.23 11.4 7 9 1028.9 0.6 23.1 29.7 48.1 126.4 124.2 428.3
09/05 00:30 12.7 93 10.35 11.6 9 13 1028.9 0.6 23.4 29.8 48.5 127.5 125.6 433.2
09/05 00:20 12.6 93 10.29 11.5 9 11 1028.9 0.6 23.3 29.7 48.3 126.9 124.9 430.8
09/05 00:10 12.4 92 10.05 11.1 7 7 1028.8 0.6 22.7 29.4 47.4 124.4 121.7 419.8
09/05 00:00 12.5 92 10.12 11.2 7 9 1028.7 0.6 22.9 29.5 47.6 125.1 122.6 422.7
08/05 23:50 12.7 92 10.24 11.4 7 9 1028.7 0.6 23.1 29.6 48.0 126.1 124.0 427.6
08/05 23:40 12.9 92 10.37 11.6 9 11 1028.8 0.6 23.4 29.8 48.5 127.3 125.5 433.1
08/05 23:30 13.3 92 10.63 12 13 20 1028.8 0.6 23.9 30.1 49.4 129.7 128.6 443.9
08/05 23:20 13.2 92 10.56 11.9 9 11 1028.8 0.6 23.8 30.0 49.1 129.1 127.8 440.9
08/05 23:10 12.8 92 10.31 11.5 11 13 1028.9 0.6 23.3 29.7 48.3 126.8 124.8 430.7
08/05 23:00 13.2 92 10.56 11.9 15 19 1029 0.6 23.8 30.0 49.1 129.1 127.8 441.0
08/05 22:50 13.2 92 10.56 11.9 15 19 1029 0.6 23.8 30.0 49.1 129.1 127.8 441.0
08/05 22:40 13.5 92 10.76 12.2 15 19 1029.1 0.6 24.2 30.3 49.8 130.9 130.2 449.4
08/05 22:30 13.6 92 10.83 12.3 13 20 1029.2 0.6 24.4 30.4 50.1 131.6 131.0 452.4
08/05 22:20 13.9 91 10.91 12.4 11 15 1029.2 0.6 24.5 30.4 50.2 132.0 131.7 454.7
08/05 22:10 13.6 91 10.71 12.1 11 13 1029.2 0.6 24.1 30.1 49.5 130.2 129.3 446.3
08/05 22:00 13.7 91 10.78 12.3 13 22 1029.2 0.6 24.2 30.2 49.8 130.9 130.1 449.3
08/05 21:50 13.6 91 10.71 12.1 13 15 1029.1 0.6 24.1 30.1 49.5 130.2 129.3 446.3
08/05 21:40 13.6 92 10.83 12.3 13 15 1029.2 0.6 24.4 30.4 50.1 131.6 131.0 452.4
08/05 21:30 13.8 92 10.96 12.5 17 28 1029.1 0.6 24.6 30.5 50.5 132.8 132.6 457.7
08/05 21:20 13.8 92 10.96 12.5 13 15 1029.1 0.6 24.6 30.5 50.5 132.8 132.6 457.7
08/05 21:10 13.8 92 10.96 12.6 15 19 1029 0.6 24.6 30.5 50.5 132.8 132.5 457.7
08/05 21:00 13.8 93 11.08 12.7 13 19 1029 0.6 24.9 30.7 51.0 134.2 134.3 463.8
08/05 20:50 13.8 92 10.96 12.6 13 17 1029.1 0.6 24.6 30.5 50.5 132.8 132.6 457.7
08/05 20:40 13.7 92 10.89 12.4 15 17 1029 0.6 24.5 30.4 50.3 132.1 131.7 454.8
08/05 20:30 14 92 11.1 12.7 15 22 1029 0.6 24.9 30.7 51.0 134.1 134.2 463.6
08/05 20:20 13.9 92 11.03 12.6 19 24 1029 0.6 24.8 30.6 50.7 133.4 133.4 460.7
08/05 20:10 13.8 92 10.96 12.6 13 15 1029 0.6 24.6 30.5 50.5 132.8 132.5 457.7
08/05 20:00 13.6 93 10.95 12.5 15 20 1028.9 0.6 24.6 30.6 50.6 133.0 132.7 458.4
08/05 19:50 13.7 92 10.89 12.5 15 19 1029 0.6 24.5 30.4 50.3 132.1 131.7 454.8
08/05 19:40 13.7 92 10.89 12.5 19 19 1028.9 0.4 24.5 30.4 50.3 132.1 131.7 454.7
08/05 19:30 13.8 93 11.08 12.7 17 24 1028.9 0.4 24.9 30.7 51.0 134.2 134.3 463.8
08/05 19:20 13.7 92 10.89 12.5 20 28 1028.8 0.4 24.5 30.4 50.2 132.1 131.7 454.7
08/05 19:10 13.8 92 10.96 12.6 19 26 1028.8 0.4 24.6 30.5 50.5 132.8 132.5 457.6
08/05 19:00 13.9 93 11.15 12.8 17 22 1028.7 0.4 25.0 30.8 51.3 134.8 135.1 466.6
08/05 18:50 13.9 92 11.03 12.7 15 15 1028.7 0.4 24.8 30.6 50.7 133.4 133.4 460.6
08/05 18:40 13.9 92 11.03 12.7 11 11 1028.7 0.4 24.8 30.6 50.7 133.4 133.4 460.6
08/05 18:30 13.9 93 11.15 12.8 11 17 1028.7 0.4 25.0 30.8 51.3 134.8 135.1 466.6
08/05 18:20 13.6 93 10.95 12.5 17 20 1028.7 0.2 24.6 30.6 50.6 133.0 132.7 458.3
08/05 18:10 13.8 92 10.96 12.6 11 13 1028.6 0.2 24.6 30.5 50.5 132.7 132.5 457.6
08/05 18:00 13.7 93 11.01 12.6 9 11 1028.5 0.2 24.7 30.6 50.8 133.5 133.4 460.7
08/05 17:50 13.7 92 10.89 12.5 11 11 1028.6 0.2 24.5 30.4 50.2 132.1 131.7 454.6
08/05 17:40 13.7 92 10.89 12.4 9 11 1028.5 0.2 24.5 30.4 50.2 132.1 131.7 454.6
08/05 17:30 13.9 91 10.91 12.5 20 28 1028.5 0.2 24.5 30.4 50.2 132.0 131.6 454.4
08/05 17:20 13.8 92 10.96 12.5 13 17 1028.4 0.2 24.6 30.5 50.5 132.7 132.5 457.5
08/05 17:10 13.7 91 10.78 12.2 9 13 1028.3 0.2 24.2 30.2 49.7 130.7 130.0 449.0
08/05 17:00 13.8 91 10.84 12.4 19 28 1028.3 0.2 24.4 30.3 49.9 131.3 130.7 451.4
08/05 16:50 14 89 10.74 12.3 13 15 1028.2 0.2 24.1 30.0 49.4 129.8 129.0 445.2
08/05 16:40 13.9 89 10.67 12.1 15 19 1028.2 0.2 24.0 29.9 49.1 129.1 128.1 442.3
08/05 16:30 14.4 87 10.75 12.3 24 35 1028.2 0.2 24.1 29.9 49.2 129.2 128.4 443.4
08/05 16:20 14.3 88 10.81 12.3 19 26 1028.2 0.2 24.3 30.0 49.5 130.1 129.4 447.0
08/05 16:10 14 89 10.74 12.2 15 17 1028.2 0.2 24.1 30.0 49.4 129.8 129.0 445.2
08/05 16:00 14.1 89 10.8 12.3 20 32 1028.3 0.2 24.3 30.1 49.6 130.3 129.7 447.6
08/05 15:50 14.6 85 10.64 12.1 28 33 1028.1 0.2 23.9 29.6 48.6 127.6 126.5 436.8
08/05 15:40 14.5 85 10.57 12.1 13 15 1028.1 0.2 23.7 29.6 48.3 127.0 125.7 433.8
08/05 15:30 14.6 86 10.76 12.3 19 30 1028.1 0.2 24.1 29.8 49.1 129.0 128.2 442.7
08/05 15:20 15.3 79 10.32 11.8 17 20 1027.9 0 23.2 28.8 46.7 122.8 120.9 417.2
08/05 15:10 15.2 78 10.12 11.5 19 24 1027.9 0 22.7 28.5 46.0 120.7 118.3 408.0
08/05 15:00 15.8 75 10.1 11.4 20 30 1027.8 0 22.7 28.3 45.5 119.6 117.1 403.9
08/05 14:50 16 80 10.9 12.5 24 28 1027.8 0 24.4 29.6 48.8 128.2 127.8 441.5
08/05 14:40 14.9 87 11.09 12.7 15 20 1027.8 0 24.8 30.3 50.3 132.3 132.4 457.3
08/05 14:30 14.5 88 10.95 12.5 15 20 1027.8 0 24.6 30.2 49.9 131.3 131.1 452.7
08/05 14:20 14.5 85 10.57 12 20 26 1027.9 0 23.7 29.5 48.3 126.9 125.7 433.8
08/05 14:10 14.5 85 10.57 12.1 17 22 1027.8 0 23.7 29.5 48.3 126.9 125.7 433.7
08/05 14:00 14.6 86 10.76 12.3 20 28 1027.8 0 24.1 29.8 49.1 128.9 128.2 442.6
08/05 13:50 15 85 10.9 12.6 20 24 1027.8 0 24.4 29.9 49.4 129.9 129.5 447.3
08/05 13:40 14.6 87 10.89 12.4 22 24 1027.9 0 24.4 30.1 49.6 130.5 130.0 449.1
08/05 13:30 14.4 86 10.63 12.1 19 32 1028 0 23.9 29.7 48.6 127.8 126.7 437.4
08/05 13:20 14.2 88 10.75 12.2 20 24 1028.1 0 24.1 30.0 49.3 129.5 128.7 444.5
08/05 13:10 14.4 88 10.88 12.4 22 26 1028.2 0 24.4 30.1 49.7 130.7 130.3 449.9
08/05 13:00 14.7 83 10.45 11.8 20 30 1028.3 0 23.5 29.3 47.7 125.3 123.7 426.9
08/05 12:50 14.9 79 10.07 11.3 20 24 1028.3 0 22.6 28.6 45.9 120.7 118.1 407.3
08/05 12:40 14.9 79 10.07 11.3 22 26 1028.4 0 22.6 28.6 46.0 120.7 118.1 407.3
08/05 12:30 14.9 80 10.2 11.5 24 33 1028.4 0 22.9 28.8 46.5 122.1 119.9 413.6
08/05 12:20 15 78 10 11.2 26 30 1028.4 0 22.5 28.4 45.6 119.7 117.0 403.4
08/05 12:10 15.1 76 9.8 10.9 19 28 1028.6 0 22.1 28.1 44.7 117.4 114.1 393.4
08/05 12:00 15.1 77 9.93 11.1 19 30 1028.7 0 22.3 28.3 45.3 118.8 115.9 399.6
08/05 11:50 15 77 9.87 11 22 26 1028.7 0 22.2 28.2 45.1 118.3 115.2 397.3
08/05 11:40 14.9 76 9.69 10.7 22 28 1028.8 0 21.8 27.9 44.4 116.5 112.9 389.2
08/05 11:30 15.2 75 9.73 10.8 20 30 1028.8 0 21.9 27.9 44.4 116.5 113.0 389.6
08/05 11:20 15.2 73 9.48 10.4 15 22 1028.8 0 21.4 27.5 43.3 113.7 109.6 377.7
08/05 11:10 15 75 9.62 10.6 24 32 1028.8 0 21.7 27.8 44.0 115.6 111.8 385.3
08/05 11:00 15.5 76 10.05 11.3 24 30 1028.7 0 22.6 28.4 45.5 119.6 116.9 403.3
08/05 10:50 15 76 9.75 10.8 24 32 1028.7 0 22.0 28.0 44.6 117.0 113.6 391.5
08/05 10:40 15.2 76 9.86 11 17 24 1028.7 0 22.2 28.1 44.9 117.9 114.8 395.8
08/05 10:30 14.9 77 9.81 10.9 24 33 1028.9 0 22.1 28.2 44.9 117.8 114.5 394.9
08/05 10:20 15 79 10.13 11.4 22 28 1028.8 0 22.8 28.7 46.2 121.2 118.8 409.8
08/05 10:10 15.5 70 9.25 10 19 20 1028.6 0 20.9 27.0 42.2 110.8 106.1 365.4
08/05 10:00 15.6 74 9.84 11 24 33 1028.7 0 22.1 28.0 44.6 117.1 113.9 392.8
08/05 09:50 15.2 78 10.12 11.4 26 28 1028.7 0 22.7 28.6 46.0 120.8 118.3 408.3
08/05 09:40 15.4 77 10.12 11.5 19 24 1028.7 0 22.7 28.5 45.9 120.5 118.0 407.2
08/05 09:30 14.6 82 10.26 11.6 28 41 1028.8 0 23.1 29.0 47.0 123.3 121.2 418.3
08/05 09:20 14.8 79 10.01 11.3 30 39 1028.9 0 22.5 28.5 45.8 120.2 117.4 405.1
08/05 09:10 14.9 80 10.2 11.6 20 26 1028.8 0 22.9 28.8 46.5 122.2 119.9 413.8
08/05 09:00 14.4 84 10.38 11.7 24 33 1028.9 0 23.3 29.3 47.6 125.0 123.2 425.3
08/05 08:50 14.7 79 9.95 11.1 30 33 1028.8 0.4 22.4 28.5 45.6 119.7 116.8 402.7
08/05 08:40 14.9 75 9.56 10.5 20 22 1028.5 0.4 21.6 27.7 43.8 115.0 111.1 382.9
08/05 08:30 14.6 79 9.89 11 20 35 1028.4 0.4 22.3 28.4 45.4 119.1 116.0 400.2
08/05 08:20 13.9 83 9.95 11 24 30 1028.4 0.4 22.4 28.7 46.0 120.9 117.9 406.7

Last Refresh: 09-May-2026 00:54:57

Bureau of Meteorology